Погода в Сусумане

Погода в Сусумане : погода сейчас, прогноз погоды и архив. Всё, что Вы хотите узнать о погоде в Сусумане!

Поиск расширенной информации на нашем сайте:

Другие новости

Новости СМИ2

Главная страница сайта

Новости сайта

02.10.2013

Напоминаем, что на нашем новом сайте вы можете получить высокодетализированные прогнозы погоды по пунктам России, СНГ и мира (включающие важные для авиации метеовеличины, такие как направление и скорость ветра, видимость, явления погоды, количество и форма облачности, нижняя и верхняя граница облачности), а также ознакомиться с разнообразными материалами по авиационной метеорологии и подборкой полезных ссылок на эту тему.

Сайт Метеоцентр.Азия посвящён разработке технологий оптимизации авиаметеорологического обслуживания, включая проектирование и перспективное создание нескольких автоматизированных авиаметеорологических систем:
- система выпуска высокодетальных прогностических карт явлений погоды для нижнего воздушного пространства по России и ближнему зарубежью;
- система верификации прогнозов TAF (выпускаемых синоптиками официальных АМСГ РФ и ближнего зарубежья) и AUTOTAF (выпускаемых сайтом Метеоцентр.Азия) - выявление ошибок, онлайн-сопоставление с фактической погодой METAR, автоматическое внесение коррективов в прогнозы при резком отклонении фактической погоды от прогноза, подсчёт оправдываемости прогнозов по элементам и в целом;
- система обработки, анализа и отображения авиаметеорологической информации для применения провайдерами метеорологической информации.

Рекомендуем: Top100 бизнес и финансы базы данных предприятий россии.

Погода в Сусумане - сегодня

Время (UTC), дата Ветер
(°,м/с) 
Видим.   Явления Облачность Т
(°С)
Тd
(°С)
f(%) Тe
(°С)
Pmin
(гПа)
dP
(гПа)
Po
(мм)
O2
(г/м3)
Тmin Tmax R s Состояние
почвы
21 21.05.17 010 (С) 2{11}  20000 м  {ливн. осадки}  9/8 960 м кучево-дожд., средняя 
[Cb cap|Ac trans]
+2.6 -3.2 66 +2  1000.8  693  277  -0.9    0.0    влажная 
00 22.05.17 040 (СВ) 8-13{14}  20000 м    9/8 930 м кучево-дожд., средняя 
[Cb cap|Ac trans]
+4.4 -4.8 51 +1  1001  0.7  693  275           
03 22.05.17 060 (СВ) 4{13}  20000 м    10/10 1000 м кучево-дожд. 
[Cb cap]
+5 -5.1 48 +3  1001.7  0.7  694  275           
06 22.05.17 050 (СВ) 4{11}  20000 м    9/9 960 м кучево-дожд. 
[Cb cap]
+4 -3.1 60 +2  1003.2  1.2  695  276           
09 22.05.17 050 (СВ) 5-10{11}  20000 м    9/6 1020 м кучево-дожд., средняя 
[Cb cap|Ac As]
+4 -4 56 +2  1004.9  1.5  696  277    +5.2       
12 22.05.17 070 (В) 4{12}  20000 м    10/6 1020 м кучево-дожд., средняя 
[Cb cap|Ac As]
+1.7 -5 61 1007.5  1.8  697  280           
15 22.05.17 030 (СВ) 20000 м    8/4 1000 м кучево-дожд., средняя, верхняя 
[Cb cap|Ac trans|Ci fib]
+0 -4.3 73 -2  1009.1  698  281           
18 22.05.17 030 (СВ) 20000 м    8/4 1000 м кучево-дожд., средняя, верхняя 
[Cb cap|Ac trans|Ci fib]
-1.5 -5.6 74 -1  1010.6  699  284           
00 23.05.17 050 (СВ) 20000 м    9/6 1080 м верхняя 
[Sc|Ci fib]
+3.9 -5.5 50 +2  1010.4  0.3  699  278           
03 23.05.17 070 (В) 20000 м    8/8 1080 м 
[Cu Sc]
+6.8 -5.6 41 +6  1009.8  0.2  700  276           
06 23.05.17 080 (В) 3{10}  20000 м    8/8 1200 м 
[Sc]
+6.5 -4.9 44 +6  1010.2  0.3  700  276           
12 23.05.17 030 (СВ) 20000 м    3/3 1000 м 
[Sc]
-0.3 -4.7 72 -1  1014.8  1.3  702  283           
15 23.05.17 120 (ЮВ) 20000 м    1/1 1000 м 
[Sc]
-5.4 -6.5 92 -5  1017.3  0.8  702  289           
18 23.05.17 110 (В) н/о    н/о 
-6.5 -7.2 95 -6  1018  0.3  703  291           
21 23.05.17 020 (С) 20000 м    3/3 1000 м 
[Sc]
+3.1 -3.8 60 +4  1014.8  -0.2  702  280  -6.9        влажная 
00 24.05.17 220 (ЮЗ) 20000 м    3/3 1000 м 
[Cu Sc]
+9.1 -6.5 33 +9  1011.4  -1.6  701  274           
03 24.05.17 220 (ЮЗ) 20000 м    8/8 1170 м 
[Cu Sc]
+10.8 -7.2 28 +10  1009.7  -1.1  700  272           
06 24.05.17 320 (СЗ) 20000 м    6/6 1000 м 
[Sc]
+11.6 -7.4 26 +13  1007.7  -1.6  699  271           
09 24.05.17 240 (ЮЗ) 20000 м    1/1 1000 м 
[Sc]
+12.3 -7.5 24 +12  1006.6  -0.9  698  270    +13.2       
12 24.05.17 160 (Ю) 20000 м    1/1 1000 м 
[Sc]
+2.7 -6.3 51 +2  1008.9  -0.4  698  279           
15 24.05.17 120 (ЮВ) 20000 м    ясно 
-2.4 -5.7 78 -2  1009.9  -0.4  698  284           
18 24.05.17 230 (ЮЗ) 20000 м    ясно 
-2.7 -4.7 86 -2  1009.6  -0.4  698  284           
21 24.05.17 220 (ЮЗ) 20000 м    ясно 
+8.2 -2.6 46 +8  1004.7  -1.6  696  273  -4.5        влажная 
00 25.05.17 220 (ЮЗ) 20000 м    ясно 
+13.4 -3.2 31 +13  1001.1  -2.1  695  267           
03 25.05.17 210 (ЮЗ) 6-12{13}  20000 м    9/3 1000 м верхняя 
[Cu hum|Cs]
+16.5 -3.6 25 +16  997.4  -2.6  693  264           
Время (UTC), дата Ветер
(°,м/с) 
Видим.   Явления Облачность Т
(°С)
Тd
(°С)
f(%) Тe
(°С)
Pmin
(гПа)
dP
(гПа)
Po
(мм)
O2
(г/м3)
Тmin Tmax R s Состояние
почвы

Для получения пояснительной информации подведите курсор к названию столбца.

ПОГОДА в Сусумане - архив

Всё, что Вы хотите узнать о погоде в Сусумане - удобно и подробно!

Выберите нужную дату (начиная с 1 января 2015* года) и нажмите кнопку "Найти".
Будут отображены архивные сводки погоды по пункту Сусуман, начиная с указанной даты.


Отображать данные в формате CSV (для использования в таблицах Excel)


Внимание! Наш архив погоды предназначен исключительно для личного некоммерческого использования в познавательных целях. Если Вам необходимы официальные справки о состоянии погоды (для производственных, юридических, коммерческих и т.п. целей), обращайтесь в органы Росгидромета.

*Примечание: данная дата относится к архиву по метеостанциям СССР (Россия, СНГ, Балтия).
Архив по метеостанциям Зарубежной Европы и Азии (кроме Китая) хранится 10 дней, по другим регионам земного шара (Китай, Африка, Америка, Австралия, Океания) - 1 день.

Сусуман - район местоположения метеостанции


Название, широта, долгота, высота метеостанции:
Сусуман 62.8°ш. 148.2°д. 655 м над ур. моря [Российская Федерация]

Дополнительная информация

В oтличие oт бoльшинства пoгoдных сайтoв мы публикуем пoдрoбную метеoинфoрмацию в детальнoм прoфессиoнальнoм фoрмате.

Характеристики температуры и влажнoсти вoздуха измеряются на высoте 2 м в тени вдали oт зданий и деревьев.
Скoрoсть ветра измеряется на высoте 10 м (на урoвне рoста челoвека скoрoсть ветра ниже в 1.5-2 раза). Если метеoстанция нахoдится в гoрoде или в лесу, тo скoрoсть ветра занижена на 2-4 м/с пo сравнению с oткрытым местoм. Скoрoсть ветра над акватoриями крупных рек и oзёр, а также на вершинах хoлмoв на 2-5 м/с выше, чем в oбычных услoвиях.
Атмoсфернoе давление в разных тoчках местнoсти мoжет значительнo oтличаться oт давления на метеoстанции, в зависимoсти oт услoвий рельефа (при пoдъёме на 10 м давление пoнижается примернo на 1 мм рт.ст.).